Regional Weather Roundup
Issued by NWS Albany, NY

Home | Current Version | Previous Version | Text Only | Print | Product List | Glossary On
Versions: 1 2 3 4 5 6 7 8 9 10 11 12 13 14 15 16 17 18 19 20 21 22 23 24 25 26 27
000
ASUS41 KALY 180310
RWRALY

NEW YORK STATE HOURLY WEATHER ROUNDUP
NATIONAL WEATHER SERVICE ALBANY NY
1100 PM EDT TUE OCT 17 2017

NOTE: "FAIR" INDICATES FEW OR NO CLOUDS BELOW 12,000 FEET WITH NO
SIGNIFICANT WEATHER AND/OR NO OBSTRUCTIONS TO VISIBILITY.

NYZ032-033-038>043-046>054-057>066-NYZ062>081-082-084-180400-
EAST


CITY           SKY/WX    TMP DP  RH WIND       PRES   REMARKS
ALBANY         CLEAR     47  34  60 S6        30.22R
GLENS FALLS    CLEAR     41  33  73 S7        30.20R
POUGHKEEPSIE   CLEAR     41  37  86 CALM      30.26R
NEWBURGH       CLEAR     46  37  71 W5        30.27S
MONTGOMERY     CLEAR     39  37  92 SW5       30.26R
WHITE PLAINS   CLEAR     50  39  66 CALM      30.28R
ISLIP          CLEAR     45  41  86 CALM      30.29S
NEW YORK CITY  CLEAR     56  37  49 SW10      30.29R
CENTRAL PARK   CLEAR     54  37  52 VRB6      30.32R
$$

NYZ005>009-017-018-044>046-055-056-180400-
CENTRAL


CITY           SKY/WX    TMP DP  RH WIND       PRES   REMARKS
FULTON         PTCLDY    50  40  68 S7        30.16R
SYRACUSE       PTCLDY    54  38  54 SW10      30.17R
ROME           CLOUDY    46  40  79 CALM      30.19S
ELMIRA         CLEAR     43  39  86 CALM      30.23R
BINGHAMTON     CLEAR     47  34  60 SW7       30.22R
MONTICELLO     CLEAR     41  31  67 CALM      30.27R
$$

NYZ026>034-041>043-087-180400-
NORTH


CITY           SKY/WX    TMP DP  RH WIND       PRES   REMARKS
WATERTOWN      PTCLDY    56  42  59 S12G20    30.11R
FORT DRUM      NOT AVBL
OGDENSBURG     FAIR      54  44  70 SW9       30.05F
MASSENA        MOCLDY    56  42  59 SW10G20   30.05R
SARANAC LAKE   PTCLDY    45  37  73 SW10      30.09S
PLATTSBURGH    PTCLDY    48  36  63 VRB5      30.08F
$$

NYZ001>004-010>016-019>021-085-180400-
WEST


CITY           SKY/WX    TMP DP  RH WIND       PRES   REMARKS
NIAGARA FALLS  CLEAR     61  47  59 SW15      30.16R
BUFFALO        PTCLDY    54  41  61 SW13      30.18R
DUNKIRK        CLEAR     55  41  59 S10       30.21R
JAMESTOWN      CLEAR     49  38  65 S8        30.25R
WELLSVILLE     CLOUDY    52  36  54 W13       30.24R
ROCHESTER      CLEAR     51  42  71 SW8       30.17R
$$

             KEY
       WCI = WIND CHILL INDEX
       VSB = VISIBILITY
       HX  = HEAT INDEX
$$




USA.gov is the U.S. government's official web portal to all federal, state and local government web resources and services.